Time,TemperatureF,DewpointF,PressureIn,WindDirection,WindDirectionDegrees,WindSpeedMPH,WindSpeedGustMPH,Humidity,HourlyPrecipIn,Conditions,Clouds,dailyrainin,SoftwareType,DateUTC
2013-05-21 00:05:00,57.8,38.0,29.90,East,90,2.0,2.0,48,0.00,,,0.00,weatherlink.com 1.10,2013-05-21 07:05:00,
2013-05-21 00:20:00,57.4,35.0,29.89,ENE,76,0.0,3.0,44,0.00,,,0.00,weatherlink.com 1.10,2013-05-21 07:20:00,
2013-05-21 00:35:00,57.2,36.0,29.89,NE,36,0.0,3.0,45,0.00,,,0.00,weatherlink.com 1.10,2013-05-21 07:35:00,
2013-05-21 00:50:00,59.2,34.0,29.89,NNW,333,1.0,2.0,39,0.00,,,0.00,weatherlink.com 1.10,2013-05-21 07:50:00,
2013-05-21 01:05:00,61.0,34.0,29.88,ENE,75,1.0,3.0,37,0.00,,,0.00,weatherlink.com 1.10,2013-05-21 08:05:00,
2013-05-21 01:20:00,60.1,34.0,29.88,ENE,75,2.0,4.0,37,0.00,,,0.00,weatherlink.com 1.10,2013-05-21 08:20:00,
2013-05-21 01:35:00,60.9,31.0,29.87,East,83,1.0,3.0,33,0.00,,,0.00,weatherlink.com 1.10,2013-05-21 08:35:00,
2013-05-21 01:50:00,63.3,30.0,29.87,NE,34,2.0,4.0,29,0.00,,,0.00,weatherlink.com 1.10,2013-05-21 08:50:00,
2013-05-21 02:05:00,63.3,33.0,29.86,East,79,0.0,5.0,32,0.00,,,0.00,weatherlink.com 1.10,2013-05-21 09:05:00,
2013-05-21 02:20:00,63.5,32.0,29.86,NW,323,0.0,2.0,31,0.00,,,0.00,weatherlink.com 1.10,2013-05-21 09:20:00,
2013-05-21 02:36:00,64.3,33.0,29.85,SW,234,2.0,4.0,31,0.00,,,0.00,weatherlink.com 1.10,2013-05-21 09:36:00,
2013-05-21 02:51:00,64.0,33.0,29.85,SW,225,1.0,3.0,32,0.00,,,0.00,weatherlink.com 1.10,2013-05-21 09:51:00,
2013-05-21 03:06:00,64.1,33.0,29.84,NW,313,1.0,4.0,32,0.00,,,0.00,weatherlink.com 1.10,2013-05-21 10:06:00,
2013-05-21 03:21:00,64.0,34.0,29.84,NNW,332,0.0,3.0,33,0.00,,,0.00,weatherlink.com 1.10,2013-05-21 10:21:00,
2013-05-21 03:36:00,63.1,33.0,29.84,SSE,157,0.0,4.0,33,0.00,,,0.00,weatherlink.com 1.10,2013-05-21 10:36:00,
2013-05-21 03:51:00,63.4,34.0,29.84,WNW,300,0.0,4.0,33,0.00,,,0.00,weatherlink.com 1.10,2013-05-21 10:51:00,
2013-05-21 04:06:00,62.3,35.0,29.84,NNE,33,2.0,3.0,36,0.00,,,0.00,weatherlink.com 1.10,2013-05-21 11:06:00,
2013-05-21 04:21:00,62.2,35.0,29.84,North,11,2.0,4.0,36,0.00,,,0.00,weatherlink.com 1.10,2013-05-21 11:21:00,
2013-05-21 04:36:00,61.7,36.0,29.84,NW,321,1.0,3.0,38,0.00,,,0.00,weatherlink.com 1.10,2013-05-21 11:36:00,
2013-05-21 04:51:00,61.1,36.0,29.84,WNW,299,0.0,6.0,39,0.00,,,0.00,weatherlink.com 1.10,2013-05-21 11:51:00,
2013-05-21 05:06:00,60.8,36.0,29.84,WNW,300,1.0,5.0,40,0.00,,,0.00,weatherlink.com 1.10,2013-05-21 12:06:00,
2013-05-21 05:21:00,62.6,36.0,29.85,WNW,294,4.0,8.0,38,0.00,,,0.00,weatherlink.com 1.10,2013-05-21 12:21:00,
2013-05-21 05:36:00,63.5,37.0,29.85,NW,309,3.0,6.0,38,0.00,,,0.00,weatherlink.com 1.10,2013-05-21 12:36:00,
2013-05-21 05:51:00,63.3,37.0,29.85,NW,309,1.0,6.0,38,0.00,,,0.00,weatherlink.com 1.10,2013-05-21 12:51:00,
2013-05-21 06:06:00,63.8,38.0,29.84,NW,312,1.0,3.0,38,0.00,,,0.00,weatherlink.com 1.10,2013-05-21 13:06:00,
2013-05-21 06:21:00,63.2,38.0,29.84,NNE,23,1.0,2.0,39,0.00,,,0.00,weatherlink.com 1.10,2013-05-21 13:21:00,
2013-05-21 06:36:00,62.8,38.0,29.85,NNW,335,0.0,2.0,40,0.00,,,0.00,weatherlink.com 1.10,2013-05-21 13:36:00,
2013-05-21 06:51:00,62.4,38.0,29.85,South,177,0.0,1.0,40,0.00,,,0.00,weatherlink.com 1.10,2013-05-21 13:51:00,
2013-05-21 07:06:00,62.1,40.0,29.84,South,177,0.0,1.0,44,0.00,,,0.00,weatherlink.com 1.10,2013-05-21 14:06:00,
2013-05-21 07:21:00,62.7,40.0,29.85,South,177,0.0,1.0,44,0.00,,,0.00,weatherlink.com 1.10,2013-05-21 14:21:00,
2013-05-21 07:36:00,64.4,37.0,29.85,South,177,0.0,1.0,37,0.00,,,0.00,weatherlink.com 1.10,2013-05-21 14:36:00,
2013-05-21 07:51:00,67.5,37.0,29.85,SW,214,0.0,3.0,32,0.00,,,0.00,weatherlink.com 1.10,2013-05-21 14:51:00,
2013-05-21 08:06:00,70.2,34.0,29.84,South,176,2.0,5.0,26,0.00,,,0.00,weatherlink.com 1.10,2013-05-21 15:06:00,
2013-05-21 08:21:00,72.0,35.0,29.85,South,179,1.0,5.0,26,0.00,,,0.00,weatherlink.com 1.10,2013-05-21 15:21:00,
2013-05-21 08:36:00,73.8,35.0,29.85,WSW,239,5.0,8.0,24,0.00,,,0.00,weatherlink.com 1.10,2013-05-21 15:36:00,
2013-05-21 08:51:00,73.9,34.0,29.85,SSW,193,5.0,8.0,23,0.00,,,0.00,weatherlink.com 1.10,2013-05-21 15:51:00,
2013-05-21 09:06:00,75.5,33.0,29.85,South,173,4.0,10.0,21,0.00,,,0.00,weatherlink.com 1.10,2013-05-21 16:06:00,
2013-05-21 09:21:00,75.8,33.0,29.85,South,183,8.0,10.0,21,0.00,,,0.00,weatherlink.com 1.10,2013-05-21 16:21:00,
2013-05-21 09:36:00,76.5,34.0,29.84,South,181,5.0,12.0,21,0.00,,,0.00,weatherlink.com 1.10,2013-05-21 16:36:00,
2013-05-21 09:51:00,77.5,35.0,29.84,SSW,212,13.0,13.0,21,0.00,,,0.00,weatherlink.com 1.10,2013-05-21 16:51:00,
2013-05-21 10:06:00,78.4,33.0,29.84,South,179,13.0,15.0,19,0.00,,,0.00,weatherlink.com 1.10,2013-05-21 17:06:00,
2013-05-21 10:21:00,78.9,33.0,29.83,SSW,211,4.0,13.0,19,0.00,,,0.00,weatherlink.com 1.10,2013-05-21 17:21:00,
2013-05-21 10:37:00,79.4,34.0,29.83,South,183,7.0,12.0,19,0.00,,,0.00,weatherlink.com 1.10,2013-05-21 17:37:00,
2013-05-21 10:51:00,79.9,34.0,29.84,SSW,210,9.0,19.0,19,0.00,,,0.00,weatherlink.com 1.10,2013-05-21 17:51:00,
2013-05-21 11:07:00,80.1,36.0,29.84,SSE,159,9.0,15.0,20,0.00,,,0.00,weatherlink.com 1.10,2013-05-21 18:07:00,
2013-05-21 11:22:00,79.6,35.0,29.84,SSW,197,10.0,17.0,20,0.00,,,0.00,weatherlink.com 1.10,2013-05-21 18:22:00,
2013-05-21 11:37:00,79.9,35.0,29.84,South,184,5.0,13.0,20,0.00,,,0.00,weatherlink.com 1.10,2013-05-21 18:37:00,
2013-05-21 11:52:00,79.4,35.0,29.84,South,187,9.0,18.0,20,0.00,,,0.00,weatherlink.com 1.10,2013-05-21 18:52:00,
2013-05-21 12:07:00,79.1,35.0,29.84,SSW,203,10.0,15.0,20,0.00,,,0.00,weatherlink.com 1.10,2013-05-21 19:07:00,
2013-05-21 12:22:00,79.7,35.0,29.83,WSW,252,2.0,13.0,20,0.00,,,0.00,weatherlink.com 1.10,2013-05-21 19:22:00,
2013-05-21 12:37:00,80.3,38.0,29.82,SSW,193,3.0,15.0,22,0.00,,,0.00,weatherlink.com 1.10,2013-05-21 19:37:00,
2013-05-21 12:52:00,81.1,38.0,29.82,SW,232,9.0,13.0,21,0.00,,,0.00,weatherlink.com 1.10,2013-05-21 19:52:00,
2013-05-21 13:07:00,81.3,39.0,29.81,South,187,14.0,16.0,22,0.00,,,0.00,weatherlink.com 1.10,2013-05-21 20:07:00,
2013-05-21 13:22:00,81.0,39.0,29.81,WSW,238,12.0,18.0,22,0.00,,,0.00,weatherlink.com 1.10,2013-05-21 20:22:00,
2013-05-21 13:37:00,81.6,38.0,29.81,WNW,303,2.0,15.0,21,0.00,,,0.00,weatherlink.com 1.10,2013-05-21 20:37:00,
2013-05-21 13:52:00,81.8,39.0,29.80,SSW,208,3.0,-999.0,22,-99.99,,,0.00,weatherlink.com 1.10,2013-05-21 20:52:00,
2013-05-21 14:07:00,81.0,40.0,29.80,East,91,4.0,22.0,23,0.00,,,0.00,weatherlink.com 1.10,2013-05-21 21:07:00,
2013-05-21 14:22:00,80.6,41.0,29.79,WSW,240,5.0,19.0,24,0.00,,,0.00,weatherlink.com 1.10,2013-05-21 21:22:00,
2013-05-21 14:37:00,81.5,41.0,29.79,WNW,285,4.0,15.0,24,0.00,,,0.00,weatherlink.com 1.10,2013-05-21 21:37:00,
2013-05-21 14:52:00,81.5,42.0,29.78,WSW,250,2.0,18.0,25,0.00,,,0.00,weatherlink.com 1.10,2013-05-21 21:52:00,
2013-05-21 15:07:00,81.5,42.0,29.78,West,269,4.0,17.0,25,0.00,,,0.00,weatherlink.com 1.10,2013-05-21 22:07:00,
2013-05-21 15:22:00,81.4,41.0,29.78,SW,217,4.0,15.0,24,0.00,,,0.00,weatherlink.com 1.10,2013-05-21 22:22:00,
2013-05-21 15:37:00,80.8,40.0,29.77,NNE,12,3.0,14.0,23,0.00,,,0.00,weatherlink.com 1.10,2013-05-21 22:37:00,
2013-05-21 15:52:00,79.2,37.0,29.77,SSE,165,3.0,19.0,22,0.00,,,0.00,weatherlink.com 1.10,2013-05-21 22:52:00,
2013-05-21 16:07:00,79.6,40.0,29.76,West,262,9.0,17.0,24,0.00,,,0.00,weatherlink.com 1.10,2013-05-21 23:07:00,
2013-05-21 16:37:00,79.4,42.0,29.74,WNW,293,5.0,18.0,26,0.00,,,0.00,weatherlink.com 1.10,2013-05-21 23:37:00,
2013-05-21 16:52:00,79.4,41.0,29.75,WNW,285,4.0,16.0,25,0.00,,,0.00,weatherlink.com 1.10,2013-05-21 23:52:00,
2013-05-21 17:07:00,78.6,40.0,29.75,West,275,4.0,14.0,25,0.00,,,0.00,weatherlink.com 1.10,2013-05-22 00:07:00,
2013-05-21 17:22:00,78.1,37.0,29.75,West,277,4.0,16.0,23,0.00,,,0.00,weatherlink.com 1.10,2013-05-22 00:22:00,
2013-05-21 17:37:00,77.1,35.0,29.74,SW,229,6.0,16.0,22,0.00,,,0.00,weatherlink.com 1.10,2013-05-22 00:37:00,
2013-05-21 17:52:00,76.5,36.0,29.74,South,177,2.0,15.0,23,0.00,,,0.00,weatherlink.com 1.10,2013-05-22 00:52:00,
2013-05-21 18:07:00,76.0,36.0,29.74,WNW,301,5.0,9.0,23,0.00,,,0.00,weatherlink.com 1.10,2013-05-22 01:07:00,
2013-05-21 18:22:00,74.9,37.0,29.74,West,266,5.0,9.0,25,0.00,,,0.00,weatherlink.com 1.10,2013-05-22 01:22:00,
2013-05-21 18:37:00,73.4,37.0,29.73,SSW,193,3.0,11.0,27,0.00,,,0.00,weatherlink.com 1.10,2013-05-22 01:37:00,
2013-05-21 18:52:00,72.4,37.0,29.74,SW,217,3.0,11.0,28,0.00,,,0.00,weatherlink.com 1.10,2013-05-22 01:52:00,
2013-05-21 19:07:00,71.5,38.0,29.74,WSW,256,4.0,14.0,29,0.00,,,0.00,weatherlink.com 1.10,2013-05-22 02:07:00,
2013-05-21 19:22:00,70.6,41.0,29.74,WSW,257,4.0,11.0,34,0.00,,,0.00,weatherlink.com 1.10,2013-05-22 02:22:00,
2013-05-21 19:37:00,69.7,42.0,29.74,West,267,2.0,12.0,37,0.00,,,0.00,weatherlink.com 1.10,2013-05-22 02:37:00,
2013-05-21 19:52:00,68.8,43.0,29.75,WSW,255,1.0,9.0,40,0.00,,,0.00,weatherlink.com 1.10,2013-05-22 02:52:00,
2013-05-21 20:07:00,67.8,45.0,29.74,WNW,300,1.0,14.0,44,0.00,,,0.00,weatherlink.com 1.10,2013-05-22 03:07:00,
2013-05-21 20:22:00,67.0,46.0,29.74,SW,235,4.0,10.0,48,0.00,,,0.00,weatherlink.com 1.10,2013-05-22 03:22:00,
2013-05-21 20:37:00,66.1,47.0,29.75,SSW,212,8.0,11.0,50,0.00,,,0.00,weatherlink.com 1.10,2013-05-22 03:37:00,
2013-05-21 20:52:00,65.6,47.0,29.75,SSW,210,7.0,12.0,51,0.00,,,0.00,weatherlink.com 1.10,2013-05-22 03:52:00,
2013-05-21 21:07:00,64.8,47.0,29.75,SSW,200,11.0,13.0,53,0.00,,,0.00,weatherlink.com 1.10,2013-05-22 04:07:00,
2013-05-21 21:22:00,64.3,47.0,29.75,South,181,8.0,12.0,54,0.00,,,0.00,weatherlink.com 1.10,2013-05-22 04:22:00,
2013-05-21 21:37:00,63.7,48.0,29.75,East,87,5.0,10.0,56,0.00,,,0.00,weatherlink.com 1.10,2013-05-22 04:37:00,
2013-05-21 21:52:00,63.1,47.0,29.76,East,82,4.0,8.0,57,0.00,,,0.00,weatherlink.com 1.10,2013-05-22 04:52:00,
2013-05-21 22:07:00,62.1,46.0,29.76,SSW,205,0.0,2.0,57,0.00,,,0.00,weatherlink.com 1.10,2013-05-22 05:07:00,
2013-05-21 22:22:00,60.6,46.0,29.76,East,85,0.0,5.0,59,0.00,,,0.00,weatherlink.com 1.10,2013-05-22 05:22:00,
2013-05-21 22:37:00,59.5,46.0,29.75,SE,126,2.0,4.0,61,0.00,,,0.00,weatherlink.com 1.10,2013-05-22 05:37:00,
2013-05-21 22:52:00,58.6,45.0,29.76,SE,132,2.0,6.0,60,0.00,,,0.00,weatherlink.com 1.10,2013-05-22 05:52:00,
2013-05-21 23:07:00,59.7,42.0,29.76,WSW,256,3.0,11.0,53,0.00,,,0.00,weatherlink.com 1.10,2013-05-22 06:07:00,
2013-05-21 23:22:00,60.7,44.0,29.76,SW,222,4.0,14.0,54,0.00,,,0.00,weatherlink.com 1.10,2013-05-22 06:22:00,
2013-05-21 23:38:00,62.7,41.0,29.75,South,186,4.0,15.0,45,0.00,,,0.00,weatherlink.com 1.10,2013-05-22 06:38:00,
2013-05-21 23:52:00,62.7,40.0,29.75,West,280,3.0,11.0,43,0.00,,,0.00,weatherlink.com 1.10,2013-05-22 06:52:00,